[[{"header":{"parameterUnit":"m.s-1","parameterCategory":1,"la1":30.2991,"la2":30.254,"lo1":-89.0895,"lo2":-89.0444,"dy":0.0017,"dx":0.0017,"nx":28,"ny":28,"refTime":"2025-05-27T09:00:00:Z","depth":0,"parameterNumber":2,"parameterNumberName":"U-component_of_WINDS"},"data":[0,0,0,0,0,0,0,0,0,0,0,0,0,0,0,0,0,0,0,0,0,0,0,0,0,0,0,0,0,0,0,0,0,0,0,0,0,0,0,0,0,0,0,0,0,0,0,0,0,0,0,0,0,0,0,0,0,0,2.2198,2.2198,0,2.2205,2.2205,2.2205,2.219,2.219,2.219,2.2189,2.2195,2.2195,2.2196,0,0,0,0,0,0,0,0,0,0,0,0,0,2.2173,2.2174,2.2198,2.2198,2.2198,2.2205,2.2205,2.2205,2.2191,2.219,2.2189,2.2189,2.2194,2.2195,2.2196,0,0,0,0,0,0,0,0,0,0,0,0,0,2.2182,2.2174,2.2198,2.2192,2.2192,2.2205,2.2205,2.2205,2.2191,2.219,2.2189,2.2189,2.2194,2.2195,2.2196,2.2215,0,0,2.2199,2.2199,0,0,0,0,0,0,0,0,2.2182,2.2183,2.2193,2.2193,2.2192,2.2196,2.2198,2.2208,2.2191,2.2191,2.2189,2.2188,2.2196,2.2196,2.2199,2.2215,2.2215,2.2199,2.2199,2.22,2.22,0,0,0,0,0,0,0,2.2181,2.2183,2.2201,2.2193,2.2193,2.2189,2.2189,2.22,2.2197,2.2191,2.219,2.2191,2.2195,2.2198,2.2199,2.2216,2.2199,2.2199,2.22,2.22,2.2247,2.2248,0,0,0,0,0,0,2.2181,2.2182,2.2201,2.2201,2.2185,2.219,2.219,2.2195,2.2197,2.2196,2.2191,2.219,2.2197,2.2198,2.2199,2.2221,2.22,2.22,2.2201,2.2246,2.2247,2.2248,0,0,0,0,0,0,2.2181,2.2183,2.22,2.2191,2.2193,2.2191,2.2197,2.2196,2.2199,2.2197,2.2197,2.2195,2.2197,2.2198,2.2211,2.2221,2.2201,2.2202,2.2246,2.2247,2.2248,2.2265,0,0,0,0,0,0,2.218,2.2183,2.219,2.2192,2.2194,2.2212,2.2197,2.2197,2.22,2.2199,2.22,2.22,2.2196,2.221,2.2212,2.2222,2.2202,2.2245,2.2246,2.2247,2.2263,2.2266,2.2269,0,0,0,0,0,2.2179,2.2195,2.2191,2.2193,2.2203,2.2213,2.2214,2.221,2.2201,2.2208,2.2208,2.22,2.222,2.2211,2.2214,2.2224,2.2244,2.2246,2.2247,2.2262,2.2266,2.2269,0,0,0,0,0,0,2.2194,2.2195,2.219,2.2207,2.221,2.2211,2.2219,2.2214,2.2219,2.2217,2.2211,2.2212,2.2226,2.2226,2.2217,2.2242,2.223,2.2233,2.2241,2.2244,2.2247,2.2246,2.2203,0,0,0,0,0,2.22,2.2208,2.2208,2.2222,2.2224,2.2222,2.2226,2.2222,2.2225,2.2226,2.2226,2.2229,2.2236,2.224,2.2247,2.2264,2.2263,2.2272,2.2275,2.2277,2.2278,2.2287,2.229,2.2253,2.2253,2.2253,0,0,2.221,2.2212,2.2217,2.2225,2.2227,2.2236,2.2223,2.2232,2.2238,2.2228,2.224,2.224,2.2243,2.2258,2.2264,2.2259,2.2289,2.2279,2.2281,2.2281,2.2289,2.2292,2.2296,2.2255,2.2254,2.2254,0,0,2.2234,2.2237,2.2248,2.2251,2.2254,2.2252,2.2255,2.2257,2.2257,2.2269,2.2261,2.2268,2.228,2.2282,2.2285,2.231,2.2303,2.2312,2.2326,2.2335,2.2338,2.234,2.2348,2.2351,2.2314,2.2314,2.2314,0,2.2247,2.2259,2.2255,2.2265,2.2269,2.226,2.2272,2.2274,2.228,2.2282,2.2276,2.229,2.2292,2.2307,2.2313,2.2316,2.2318,2.2311,2.2338,2.234,2.2342,2.235,2.2353,2.2315,2.2315,2.2315,2.2315,0,2.2275,2.2284,2.2293,2.2298,2.2303,2.2314,2.2311,2.2316,2.2312,2.2311,2.2324,2.2325,2.2331,2.2335,2.2331,2.2349,2.2346,2.2339,2.2327,2.2347,2.2354,2.2357,2.2317,2.2316,2.2316,2.2316,0,0,2.2307,2.231,2.2314,2.2316,2.2319,2.2326,2.2336,2.2343,2.2347,2.2351,2.2359,2.237,2.2363,2.2366,2.2363,2.237,2.2389,2.2362,2.2362,2.2366,2.2408,2.2413,2.2416,2.2385,2.2386,2.2386,2.2408,0,2.233,2.2348,2.2344,2.2362,2.237,2.2362,2.2371,2.2374,2.2373,2.2379,2.2379,2.2386,2.2377,2.2379,2.2386,2.2385,2.2397,2.2384,2.2392,2.2392,2.239,2.242,2.2425,2.2445,2.2411,2.2411,2.2411,0,2.2358,2.2364,2.2382,2.2384,2.2387,2.2395,2.24,2.2407,2.241,2.2409,2.2413,2.2408,2.2418,2.2407,2.242,2.2411,2.2414,2.2414,2.2415,2.2415,2.2402,2.2419,2.2452,2.2454,2.2416,2.2416,2.2415,0,2.2379,2.2391,2.2403,2.2405,2.2408,2.2414,2.2415,2.2418,2.2422,2.2426,2.2429,2.2435,2.2438,2.2442,2.2439,2.2431,2.2453,2.2441,2.2451,2.2451,2.2455,2.2455,2.2487,2.2459,2.2459,2.2459,2.2459,0,2.2404,2.2415,2.2412,2.2419,2.2432,2.2428,2.244,2.2441,2.2443,2.245,2.2444,2.2451,2.2447,2.2453,2.2451,2.2462,2.2463,2.2462,2.2461,2.2462,2.2462,2.2463,2.2461,2.246,2.246,2.246,2.2459,0,2.2428,2.2427,2.2439,2.2441,2.2442,2.2451,2.2452,2.2459,2.2458,2.2467,2.2469,2.2468,2.2475,2.2473,2.248,2.2479,2.2492,2.249,2.2491,2.249,2.25,2.2499,2.2534,2.2538,2.2508,2.2508,2.2508,0,2.2443,2.2452,2.2455,2.2459,2.2461,2.2469,2.2473,2.2469,2.2474,2.2478,2.2484,2.2491,2.2496,2.2508,2.2507,2.2513,2.251,2.2522,2.2511,2.2511,2.2509,2.2508,2.2509,2.2524,2.2524,2.2524,2.2525,0,2.2471,2.247,2.2476,2.2482,2.2487,2.2492,2.2496,2.25,2.2497,2.2502,2.2509,2.2513,2.2521,2.2528,2.2533,2.2534,2.2529,2.2528,2.2531,2.2531,2.2531,2.253,2.2496,2.2527,2.2527,2.2527,2.2527,2.2527,2.249,2.2497,2.25,2.2507,2.251,2.2514,2.252,2.2521,2.2527,2.2533,2.2531,2.2539,2.2542,2.2549,2.2551,2.2557,2.2552,2.2556,2.2557,2.2557,2.2558,2.2531,2.2558,2.2558,2.2558,2.2558,2.2558,0,2.2516,2.2518,2.2525,2.253,2.2536,2.2531,2.2536,2.254,2.2548,2.2551,2.2556,2.2565,2.2571,2.2571,2.2577,2.2582,2.258,2.2584,2.2582,2.2583,2.2562,2.2559,2.2585,2.2585,2.2585,2.2585,2.2585,2.2585,2.253,2.2542,2.2541,2.2554,2.2555,2.2563,2.2566,2.257,2.2572,2.2582,2.2587,2.2587,2.2589,2.2595,2.2601,2.2601,2.2603,2.2607,2.2606,2.2587,2.2584,2.2582,2.2578,2.2608,2.2608,2.2626,2.2626,2.2626]},{"header":{"parameterUnit":"m.s-1","parameterCategory":1,"la1":30.2991,"la2":30.254,"lo1":-89.0895,"lo2":-89.0444,"dy":0.0017,"dx":0.0017,"nx":28,"ny":28,"refTime":"2025-05-27T09:00:00:Z","depth":0,"parameterNumber":3,"parameterNumberName":"V-component_of_WINDS"},"data":[0,0,0,0,0,0,0,0,0,0,0,0,0,0,0,0,0,0,0,0,0,0,0,0,0,0,0,0,0,0,0,0,0,0,0,0,0,0,0,0,0,0,0,0,0,0,0,0,0,0,0,0,0,0,0,0,0,0,3.1626,3.1628,0,3.1785,3.1787,3.1789,3.182,3.1819,3.1817,3.1816,3.1974,3.1979,3.1984,0,0,0,0,0,0,0,0,0,0,0,0,0,3.1342,3.1347,3.1626,3.1628,3.163,3.1785,3.1787,3.1789,3.182,3.1818,3.1817,3.1816,3.1972,3.1978,3.1985,0,0,0,0,0,0,0,0,0,0,0,0,0,3.148,3.1349,3.1626,3.1664,3.1669,3.1785,3.1787,3.179,3.182,3.1818,3.1817,3.1815,3.197,3.1978,3.1986,3.2072,0,0,3.201,3.2014,0,0,0,0,0,0,0,0,3.1472,3.149,3.1657,3.1662,3.1668,3.1781,3.1745,3.1884,3.1821,3.1763,3.1816,3.1814,3.1911,3.1923,3.1957,3.208,3.2086,3.2011,3.2016,3.2019,3.2021,0,0,0,0,0,0,0,3.1462,3.1483,3.1689,3.1659,3.1666,3.1671,3.1689,3.1771,3.1845,3.1768,3.177,3.1789,3.1913,3.1949,3.1961,3.2089,3.2011,3.2018,3.2023,3.2026,3.2287,3.2289,0,0,0,0,0,0,3.1447,3.1475,3.1684,3.1694,3.1563,3.1678,3.1697,3.1746,3.1844,3.1858,3.179,3.179,3.1937,3.1952,3.1967,3.2074,3.2019,3.2027,3.2031,3.2285,3.2288,3.229,0,0,0,0,0,0,3.144,3.1465,3.1677,3.1585,3.1613,3.1685,3.1739,3.175,3.1787,3.1862,3.1874,3.1814,3.1936,3.1956,3.2046,3.208,3.203,3.2038,3.2283,3.2286,3.2289,3.2288,0,0,0,0,0,0,3.1432,3.1463,3.1498,3.1586,3.1618,3.1756,3.1742,3.1755,3.1801,3.1802,3.1887,3.19,3.1936,3.2033,3.2054,3.209,3.2044,3.228,3.2284,3.2288,3.2286,3.2291,3.2296,0,0,0,0,0,3.1422,3.1491,3.15,3.1525,3.1664,3.1758,3.1775,3.1817,3.1804,3.1839,3.1886,3.1897,3.2072,3.2042,3.2065,3.2104,3.2278,3.2283,3.2288,3.2283,3.229,3.2296,0,0,0,0,0,0,3.1404,3.1503,3.1514,3.1614,3.1677,3.1763,3.1808,3.1823,3.1891,3.1888,3.1936,3.1955,3.2042,3.2082,3.2047,3.2192,3.2174,3.2184,3.2163,3.217,3.2175,3.2163,3.205,0,0,0,0,0,3.1411,3.1482,3.1564,3.1643,3.1675,3.1736,3.1778,3.1805,3.1872,3.1899,3.1953,3.2016,3.2085,3.2129,3.2197,3.2291,3.2309,3.2329,3.2334,3.2338,3.2345,3.2396,3.2406,3.2306,3.2306,3.2306,0,0,3.1428,3.1491,3.1532,3.1641,3.1694,3.1763,3.1758,3.1832,3.1883,3.1909,3.1998,3.204,3.2113,3.2205,3.2248,3.2241,3.2377,3.2344,3.2346,3.2352,3.2402,3.2411,3.242,3.2309,3.2309,3.2308,0,0,3.1493,3.1549,3.1621,3.1673,3.1753,3.1793,3.181,3.1893,3.1922,3.2012,3.2032,3.2092,3.2211,3.2262,3.2303,3.2385,3.2397,3.2406,3.2432,3.2481,3.2489,3.2496,3.2525,3.2534,3.2413,3.2413,3.2413,0,3.1503,3.1611,3.1655,3.1729,3.1775,3.1803,3.1874,3.1922,3.2019,3.2049,3.2041,3.2189,3.224,3.2344,3.2363,3.2396,3.2416,3.2397,3.2485,3.2492,3.25,3.2527,3.2538,3.2414,3.2414,3.2414,3.2414,0,3.1618,3.1692,3.174,3.1835,3.1887,3.1958,3.2012,3.2058,3.208,3.2119,3.2209,3.2271,3.2352,3.2378,3.2399,3.2484,3.2477,3.2476,3.2459,3.2509,3.2536,3.2547,3.2415,3.2414,3.2414,3.2414,0,0,3.1678,3.1796,3.1812,3.1855,3.1944,3.2,3.2072,3.2152,3.219,3.2255,3.2315,3.2414,3.2413,3.246,3.2487,3.253,3.2589,3.2523,3.2526,3.2533,3.2685,3.2685,3.2697,3.2597,3.2599,3.2601,3.2678,0,3.1754,3.1886,3.1927,3.2036,3.2104,3.2129,3.2192,3.2251,3.229,3.2351,3.2392,3.2462,3.2456,3.2484,3.2527,3.2573,3.262,3.2568,3.2652,3.2654,3.2633,3.2711,3.2712,3.2782,3.2689,3.2691,3.2692,0,3.1861,3.1929,3.2045,3.2124,3.2154,3.2209,3.2285,3.2344,3.241,3.2435,3.2487,3.251,3.2583,3.2561,3.2662,3.2625,3.2661,3.2689,3.2692,3.2702,3.2677,3.2722,3.2806,3.2816,3.2709,3.2708,3.2707,0,3.1892,3.2012,3.2097,3.2133,3.2227,3.2265,3.2306,3.2371,3.2416,3.2481,3.251,3.2582,3.2621,3.2675,3.2716,3.2697,3.2812,3.2794,3.2834,3.2832,3.2857,3.2855,3.2948,3.2881,3.288,3.288,3.288,0,3.1972,3.2042,3.2113,3.2165,3.2243,3.2288,3.2363,3.2404,3.2462,3.2521,3.2547,3.2601,3.2651,3.2712,3.2743,3.2821,3.2838,3.2859,3.2867,3.2857,3.2855,3.2882,3.2878,3.2883,3.2882,3.2882,3.2881,0,3.2021,3.2071,3.2165,3.2246,3.2268,3.2322,3.2391,3.2441,3.248,3.2554,3.2573,3.2634,3.2706,3.2752,3.2843,3.2864,3.2949,3.2955,3.2927,3.2931,3.2967,3.2963,3.3081,3.3098,3.3019,3.302,3.302,0,3.2069,3.2124,3.2211,3.2253,3.2294,3.2362,3.2408,3.2453,3.2499,3.2578,3.2619,3.2692,3.2754,3.2867,3.2918,3.2987,3.2995,3.3031,3.3006,3.2994,3.2995,3.2992,3.2997,3.3036,3.3036,3.3037,3.3037,0,3.2149,3.2171,3.2237,3.2312,3.2366,3.2427,3.2487,3.2519,3.2574,3.2624,3.2699,3.2747,3.284,3.2913,3.2986,3.3025,3.304,3.3045,3.3058,3.3049,3.303,3.304,3.2938,3.3042,3.3042,3.3041,3.3041,3.3041,3.2199,3.2248,3.2317,3.239,3.244,3.2495,3.2546,3.2591,3.2655,3.2736,3.2757,3.2835,3.2898,3.2999,3.3039,3.3099,3.3094,3.3113,3.3117,3.3121,3.3122,3.302,3.3112,3.3112,3.3112,3.3112,3.3112,0,3.228,3.2325,3.2392,3.2476,3.2532,3.2542,3.2608,3.2654,3.2723,3.2781,3.2842,3.2926,3.2996,3.3052,3.3123,3.316,3.3168,3.3177,3.3175,3.3183,3.3122,3.3104,3.3169,3.3169,3.3169,3.3169,3.3169,3.3169,3.2329,3.2413,3.2442,3.2549,3.2594,3.2671,3.2708,3.2758,3.2805,3.2899,3.2958,3.2994,3.3051,3.3127,3.319,3.3204,3.3229,3.3237,3.3252,3.3194,3.3188,3.3182,3.3165,3.3242,3.3242,3.3309,3.3309,3.331]}]]